Theta_e
347 348 346 346 345 344 347 347 347 349 349 348 345 345 346 345 349 350 351 347 347 347 348 348 346 350 350 348 348 350 347 346 345
348 348 348 346 345 346 344 348 348 347 349 349 347 347 347 347 347 349 348 351 347 350 348 350 351 352 352 348 350 348 348 351 348
348 349 348 348 345 344 347 347 348 347 349 349 348 350 348 346 346 345 349 349 349 349 351 349 350 350 347 352 351 350 349 347 348
346 346 348 349 348 344 349 348 350 350 350 350 349 349 351 350 345 348 346 347 349 349 347 347 350 346 348 350 350 349 350 350 346
346 345 346 347 348 343 346 350 350 350 349 351 351 349 351 349 349 346 349 346 345 351 347 344 346 345 346 347 349 350 350 347 346
339 340 338 342 348 344 347 348 350 351 351 352 352 349 348 350 347 349 350 351 348 350 350 346 348 348 347 347 349 350 350 349 348
341 343 342 346 350 349 346 344 347 353 351 352 352 350 349 349 349 349 346 349 352 350 347 349 348 348 347 345 347 349 350 348 348
346 345 345 346 349 345 349 348 347 354 351 353 351 351 349 348 350 349 350 349 347 347 348 350 347 347 351 349 347 347 348 350 350
348 346 347 342 341 342 344 347 347 351 353 354 352 351 350 349 348 347 347 348 350 347 345 347 348 346 345 348 349 349 347 348 344
345 341 343 346 345 340 341 340 341 340 340 352 352 353 351 352 350 349 349 347 346 345 344 345 345 344 345 345 345 344 345 344 343
341 342 335 340 345 345 345 345 343 342 345 348 351 349 348 352 352 351 351 350 350 349 349 347 347 347 347 344 342 343 344 342 341
338 340 335 334 336 342 342 341 342 342 343 343 343 344 345 346 348 349 350 349 348 348 347 346 344 347 346 343 342 343 343 342 342
336 339 338 331 332 336 342 344 344 342 342 343 345 344 346 347 346 346 344 343 343 344 344 345 344 343 344 343 343 343 341 339 340
335 337 338 337 335 336 338 342 342 338 335 341 342 344 341 340 339 338 338 338 339 340 343 342 342 343 342 340 340 339 340 340 338
334 336 335 336 339 337 338 341 341 340 335 338 339 338 337 338 337 339 337 337 338 336 337 338 338 337 336 334 335 337 337 338 337
333 334 334 333 335 337 338 339 340 342 339 337 340 339 337 339 339 339 338 338 336 335 332 334 334 334 336 336 336 333 330 334 335
333 333 333 333 335 333 333 335 336 338 339 339 339 340 338 338 338 338 337 336 333 333 334 334 331 330 330 331 329 329 333 334 334
332 331 330 332 333 330 328 328 332 334 335 336 335 336 336 335 335 336 334 334 336 334 334 334 334 333 331 331 335 333 332 329 324
332 329 324 325 322 320 317 322 320 318 319 321 327 333 334 334 333 332 331 331 331 328 329 330 331 331 330 328 325 318 316 315 315
326 323 323 322 321 320 324 324 321 318 317 315 316 317 319 320 321 321 320 321 319 317 315 313 311 311 311 311 311 310 310 310 309
Wind_Speed
27 34 38 27 31 30 30 34 33 29 27 24 22 24 24 21 20 13 12 14 13 12 13 10 18 13 16 15 15 10 11 12 10
29 31 30 32 26 39 35 30 34 30 28 24 23 23 24 25 22 18 12 13 15 16 15 11 9 10 14 14 13 15 13 13 13
21 27 32 33 27 26 40 38 34 32 31 25 23 24 23 21 22 23 20 17 15 15 12 17 16 18 19 15 15 16 15 16 12
15 14 24 22 40 33 22 41 35 35 30 25 22 27 27 22 19 18 19 21 18 15 16 18 16 17 15 16 18 18 18 18 14
13 10 7 15 31 28 31 29 41 39 33 29 25 27 28 27 23 21 21 17 16 16 14 16 17 16 16 15 16 16 18 18 15
9 11 11 18 16 34 45 29 33 38 35 31 28 28 30 27 27 23 21 22 18 18 17 14 14 13 13 13 15 14 14 15 14
21 19 13 16 13 19 40 45 38 38 37 34 31 28 30 29 28 26 25 22 17 17 18 14 10 12 10 12 14 12 11 13 15
13 12 12 13 14 13 23 30 33 25 34 36 33 29 30 29 26 23 22 23 22 21 14 14 16 12 11 12 11 12 11 14 15
13 11 9 8 9 13 10 15 16 10 16 34 36 33 31 28 27 26 24 22 21 19 21 20 21 18 18 15 17 14 16 18 19
11 12 9 18 14 8 10 15 17 24 42 11 29 27 26 21 23 25 25 24 23 21 20 19 20 21 21 22 20 21 21 20 19
8 11 14 23 16 5 3 13 18 23 24 25 18 20 17 15 19 19 17 18 18 19 20 19 18 20 21 22 23 21 21 22 18
9 11 16 8 17 12 7 3 8 17 25 25 18 14 19 24 17 16 14 13 15 16 17 17 18 22 26 24 23 23 20 18 17
6 12 10 6 9 11 7 2 5 12 15 20 19 16 17 15 15 11 7 4 7 10 13 18 20 22 25 25 23 21 14 6 8
8 9 8 5 8 8 11 6 3 4 2 6 14 15 12 10 8 6 3 3 9 3 7 6 9 13 17 18 17 13 10 10 7
13 13 9 7 6 11 15 6 10 12 9 8 7 5 7 7 5 5 5 6 5 8 6 5 0 1 5 10 4 7 5 4 2
17 17 16 14 13 10 1 6 5 11 17 20 12 12 9 6 15 9 2 2 6 3 8 10 12 11 10 11 9 8 9 6 5
14 15 18 18 21 20 15 10 8 12 12 11 13 14 10 11 11 13 11 8 9 9 8 7 8 7 11 7 12 10 5 3 6
15 14 12 15 19 19 21 23 23 19 16 14 15 17 17 15 15 14 9 10 8 5 2 3 5 7 6 1 3 2 2 3 2
16 13 15 17 17 17 19 18 21 22 22 22 21 20 17 15 14 14 12 10 11 11 10 9 8 7 5 4 2 0 2 4 5
17 17 17 18 17 18 19 18 21 21 18 17 21 22 21 18 16 16 15 14 14 15 14 12 9 8 6 4 3 3 4 5 6
Wind_Direction
194 191 211 215 194 193 191 181 178 184 193 207 212 212 211 205 200 197 202 215 202 225 217 242 237 233 232 241 243 246 255 266 264
185 204 202 215 199 193 190 193 184 180 196 201 206 215 204 204 205 194 207 222 209 205 214 230 224 225 244 238 244 245 241 258 258
176 196 201 215 214 214 189 189 189 186 195 205 204 203 210 210 215 206 202 217 212 212 223 228 234 247 244 239 238 245 246 246 250
220 204 210 195 216 212 206 189 185 185 192 200 200 196 207 210 214 217 223 220 218 224 234 239 240 246 252 246 244 242 238 243 232
330 216 251 229 215 226 225 221 189 186 190 194 200 199 202 208 212 211 224 223 233 249 253 251 252 255 256 257 251 246 248 253 250
122 187 215 247 190 206 229 230 190 185 185 192 200 195 200 204 208 211 214 224 220 234 249 248 243 243 254 261 265 259 259 264 261
176 203 221 223 195 206 213 225 207 189 185 189 196 195 200 202 204 207 212 215 216 220 244 247 253 243 258 259 252 250 267 272 277
203 205 224 214 190 180 198 210 224 194 190 189 192 195 197 200 210 208 210 215 223 232 227 237 247 244 247 262 273 261 254 261 269
228 224 244 237 217 192 212 189 193 245 194 183 187 196 196 200 206 208 212 217 220 225 224 230 233 228 231 232 238 242 252 257 265
38 20 3 338 238 210 220 254 231 267 259 188 186 190 187 193 206 211 214 219 229 237 241 245 246 243 236 241 244 247 258 260 260
35 42 24 356 35 334 320 251 219 215 218 235 218 211 176 212 207 214 214 220 228 239 247 247 251 249 243 249 262 263 262 268 263
72 103 95 84 353 357 4 353 237 219 220 224 222 208 213 223 214 205 204 217 229 242 249 251 259 253 258 260 262 262 258 262 259
110 135 136 74 119 310 320 322 321 231 218 218 202 195 184 177 176 171 172 231 254 254 251 243 255 259 256 254 251 249 245 245 241
124 127 149 148 152 264 268 235 222 110 168 183 192 183 168 170 175 197 92 4 9 273 248 251 251 255 256 247 226 191 211 213 220
100 94 84 90 131 180 239 240 231 199 187 171 148 164 187 189 162 158 145 44 22 80 86 85 236 156 119 89 89 173 161 143 258
91 88 86 80 82 99 150 200 213 226 209 207 199 197 206 207 170 149 123 181 156 88 87 112 100 106 100 100 92 92 82 28 4
97 86 81 82 75 81 86 101 136 150 157 154 172 176 159 142 147 157 155 148 138 130 133 131 124 133 115 116 115 138 160 260 269
110 102 100 92 93 91 87 86 88 90 100 117 126 121 117 125 125 130 138 142 149 155 177 189 173 196 198 216 236 228 258 267 333
105 109 108 104 99 95 92 95 96 88 90 97 102 106 109 112 115 117 113 113 115 109 103 104 111 117 130 135 175 227 332 343 338
122 115 108 108 109 109 105 97 92 96 95 102 104 101 99 92 84 84 85 84 78 82 82 80 80 86 89 85 72 36 11 357 344